Wind_Speed
52 50 48 45 43 41 41 41 42 44 45 46 48 49 49 49 50 51 53 53 53 53 52 51 49 47 45 44 42 39 35 30 27 26 26 26 25 25 24 24 25 25 27 28 29 29 29 29 29 29 28 26 25 24 23 23 24 25 27 29 29 29 29 28 29 29 29 28 26 25 24 24 25 25 25 24 22 21 20 19 18 19 19 19 19 19
55 53 50 47 44 43 42 42 43 44 45 47 48 49 50 50 51 53 54 54 54 54 53 52 51 49 48 46 45 42 36 31 29 27 27 27 26 26 25 25 25 26 28 29 30 30 30 29 29 28 27 26 25 23 23 24 26 28 29 30 31 30 29 28 29 29 29 29 28 27 25 24 24 24 25 24 23 22 21 19 19 18 19 19 19 18
58 57 54 50 47 45 43 43 43 44 45 47 48 50 50 51 52 53 54 55 55 54 53 52 52 51 50 49 47 44 38 33 30 29 28 28 27 27 26 26 26 27 28 30 31 31 31 30 29 28 27 25 24 24 25 27 29 30 31 32 32 31 30 29 28 29 29 29 29 28 27 25 24 23 24 24 24 23 22 21 20 19 19 18 18 18
61 59 57 53 50 48 46 44 43 44 45 47 48 49 50 51 53 53 54 54 55 54 53 53 52 52 51 50 49 46 40 34 31 30 29 28 28 28 27 27 28 28 30 31 32 32 31 30 29 28 27 25 25 25 28 31 32 33 33 33 33 32 30 28 28 28 29 29 28 29 28 27 25 24 23 23 23 23 22 21 21 20 19 18 18 18
63 61 59 55 52 50 48 46 44 44 45 47 48 49 50 51 52 53 54 54 55 54 54 53 52 52 52 52 51 47 41 35 32 30 30 29 29 28 28 29 29 30 31 32 33 33 32 31 30 28 27 26 26 29 32 34 34 33 33 34 33 32 30 28 27 28 28 28 28 28 29 29 28 26 24 23 22 22 22 21 21 20 20 19 18 18
65 63 60 57 54 53 50 47 46 45 46 47 49 50 51 52 52 53 53 54 55 54 53 52 52 52 52 53 51 47 41 35 32 31 31 30 30 30 30 30 31 32 33 34 34 34 33 31 30 29 27 27 30 33 34 34 34 33 33 33 33 31 29 28 27 27 28 28 28 28 28 29 29 28 26 24 23 22 21 21 21 20 20 19 19 18
67 65 61 58 56 54 52 50 48 47 47 48 49 50 51 52 52 53 54 55 55 54 53 52 51 52 53 53 51 46 40 35 32 32 32 31 31 31 31 32 33 34 35 35 35 35 34 33 31 30 30 31 33 35 35 34 33 33 33 32 32 30 29 28 27 27 28 28 28 28 28 29 29 29 28 26 25 23 22 21 21 20 20 19 19 18
68 66 62 59 57 56 55 53 51 49 48 48 49 51 52 53 53 54 54 55 55 54 52 51 51 52 52 52 49 44 38 34 33 32 33 33 33 33 33 34 35 36 36 36 36 36 35 34 33 33 34 35 36 36 35 34 33 32 32 31 31 30 29 28 28 28 28 28 28 28 28 28 29 29 28 27 26 25 23 22 21 20 20 19 19 18
69 67 64 61 58 58 58 58 55 51 48 48 49 51 53 54 54 54 54 54 54 53 52 52 52 52 51 49 45 41 37 34 33 33 34 34 35 35 35 36 37 37 37 37 36 36 35 35 35 36 37 38 38 36 35 33 33 32 31 31 30 30 29 29 28 29 29 29 29 29 29 29 29 29 28 28 27 25 24 23 22 21 20 20 19 18
71 69 66 63 62 62 63 61 57 52 48 48 49 52 54 55 55 55 54 54 54 53 52 52 52 52 50 47 42 39 36 34 34 34 35 36 37 37 38 38 38 38 37 37 36 36 35 35 36 38 40 40 39 37 35 34 33 32 31 31 31 31 30 30 29 30 30 30 30 29 29 29 29 29 28 27 27 26 25 24 23 22 21 21 20 19
74 72 70 67 67 67 68 64 57 51 48 48 51 53 55 57 57 56 54 54 54 54 54 53 53 52 49 45 42 39 37 35 35 36 37 38 39 40 40 40 40 39 37 36 36 35 35 35 37 40 42 42 40 37 35 34 33 32 32 33 33 33 32 31 30 30 31 31 31 31 31 30 30 29 28 27 26 26 25 24 23 22 22 21 21 20
76 75 74 72 72 72 70 65 57 51 49 51 53 55 57 58 58 56 55 54 55 55 56 55 54 52 49 46 43 41 39 37 37 37 38 39 40 41 41 41 40 39 37 36 35 35 35 36 38 41 43 42 39 36 35 34 34 33 34 34 35 34 33 32 31 31 32 32 32 32 32 31 30 28 27 26 26 25 25 24 23 22 22 21 21 20
79 78 77 76 76 75 71 64 57 52 52 53 55 57 58 59 58 56 55 55 56 57 57 57 55 52 49 47 46 43 41 39 38 38 39 40 40 41 41 41 40 38 36 35 35 34 34 36 39 41 41 40 37 35 34 34 34 35 35 36 36 36 34 33 31 31 32 33 33 33 32 31 29 28 26 26 25 25 24 24 23 22 22 21 21 21
82 80 78 78 77 76 72 66 59 54 52 53 55 56 57 57 56 55 55 56 57 58 59 57 54 52 49 48 47 45 43 41 40 39 39 40 40 40 41 40 39 37 35 34 33 33 34 35 38 39 38 36 34 34 34 35 36 36 37 37 37 36 35 33 32 31 32 32 33 32 31 29 28 26 25 25 25 25 24 23 23 22 21 21 21 20
83 82 79 79 79 77 74 69 63 57 54 53 53 54 54 53 53 54 55 57 58 59 59 56 54 51 49 48 47 46 44 42 40 39 39 40 40 40 40 39 38 36 34 33 33 33 33 34 36 36 35 34 33 34 35 36 36 37 37 37 37 36 34 33 32 31 31 31 31 30 28 27 26 25 24 24 24 24 24 23 22 22 21 21 21 20
80 80 79 79 79 77 75 72 67 61 56 53 53 52 52 51 52 53 54 56 57 58 57 55 52 50 49 48 47 46 44 42 41 39 38 39 39 39 39 39 37 35 33 32 33 33 33 34 34 34 34 33 34 35 36 36 37 37 37 37 36 34 33 32 32 31 30 30 28 27 25 24 24 23 23 23 23 23 23 22 22 21 21 21 20 20
73 75 77 78 78 77 75 74 70 65 59 55 54 53 52 52 52 52 52 53 54 56 55 53 50 48 48 47 46 45 43 41 40 39 38 39 39 39 39 39 38 36 34 33 34 34 34 34 34 34 33 33 34 35 36 36 36 36 36 35 34 33 32 32 31 30 28 27 25 24 23 23 23 22 23 23 23 22 22 22 21 21 21 20 20 20
68 71 74 76 77 77 76 75 72 68 63 59 57 56 54 54 54 54 52 52 53 53 53 51 49 48 47 46 45 44 42 40 39 39 38 39 39 40 40 40 39 37 35 35 35 35 35 35 35 34 33 33 33 34 35 35 35 35 35 34 33 32 31 31 29 27 26 24 23 23 22 22 22 22 22 22 22 22 21 21 21 20 20 20 20 20
68 71 73 76 76 76 77 77 74 71 67 64 61 59 58 57 57 56 54 55 54 54 52 50 48 47 47 45 44 43 42 40 39 39 39 39 40 41 41 42 41 39 36 36 35 35 36 37 36 35 34 33 33 34 34 34 34 34 33 32 31 31 30 29 27 25 23 23 23 22 22 22 21 22 22 22 21 21 21 20 20 20 20 20 20 20
69 71 74 76 76 76 78 78 77 74 71 68 65 62 60 59 58 57 56 57 56 54 52 49 48 47 46 45 44 43 42 41 40 39 39 39 40 42 43 43 42 39 37 36 36 36 37 38 38 36 35 34 33 33 33 33 33 32 32 31 30 30 28 26 24 23 22 22 22 22 21 21 21 21 21 21 21 20 20 20 20 20 20 19 19 19
70 72 73 74 76 77 80 79 77 74 73 70 66 62 61 59 58 58 58 58 57 54 51 49 47 46 46 45 43 42 42 41 41 40 39 39 41 43 44 43 41 39 37 36 36 36 38 38 38 37 36 34 33 33 33 32 32 31 30 30 29 28 26 24 23 22 22 22 21 21 21 21 21 21 21 20 20 20 20 20 19 19 19 19 19 19
71 71 72 72 75 77 79 79 77 73 72 69 65 62 60 58 58 58 58 58 56 53 50 48 47 46 45 44 43 43 42 42 41 40 39 39 41 43 44 43 40 38 36 36 36 37 38 39 39 37 36 34 33 33 32 32 31 30 29 28 27 26 24 23 22 22 22 21 21 20 20 20 20 20 20 20 20 20 19 19 19 19 18 18 18 18
71 71 70 70 72 74 77 77 76 73 70 67 63 60 58 57 57 58 58 57 56 53 50 48 47 46 46 45 45 44 43 42 42 41 39 39 40 42 43 42 39 37 36 36 37 38 39 39 38 37 35 34 33 32 32 31 30 28 27 26 25 24 23 23 22 22 21 20 20 20 20 20 20 20 20 20 19 19 19 19 18 18 18 18 18 18
69 68 67 65 66 69 72 74 74 72 69 65 61 58 55 55 55 56 56 56 54 52 50 48 47 47 47 47 47 46 45 44 43 42 41 40 41 42 43 41 39 37 36 36 37 38 39 39 38 37 35 34 33 32 31 29 28 27 26 25 24 23 23 22 22 21 20 20 20 20 20 20 19 19 19 19 19 19 19 18 18 18 17 17 18 18
63 62 59 58 59 63 67 70 72 71 68 64 60 56 53 52 52 52 52 53 52 51 49 48 47 48 48 49 48 48 47 45 44 43 42 42 42 43 43 42 39 37 36 37 38 39 40 39 37 36 35 33 32 31 29 28 27 26 25 24 23 23 22 22 21 21 20 20 20 19 19 19 19 19 19 19 19 18 18 18 17 17 17 17 18 18
59 58 57 56 57 59 62 65 67 69 68 65 60 55 52 50 49 49 49 51 51 50 49 48 48 49 49 49 49 49 48 46 45 44 44 43 44 44 43 41 38 37 37 39 40 41 40 39 37 36 35 33 32 30 28 27 26 25 24 24 23 23 22 21 21 20 20 20 19 19 19 19 19 19 19 19 18 18 18 17 17 17 17 18 18 18
60 60 59 59 59 59 60 61 64 67 68 66 63 59 55 52 50 50 50 51 51 50 48 48 49 49 50 50 49 48 47 46 46 45 45 44 44 43 42 40 38 37 39 41 42 42 40 39 37 36 34 33 31 29 28 27 26 25 24 24 23 22 22 21 21 20 20 20 19 19 19 19 19 19 18 18 18 18 17 17 17 17 18 18 18 18
64 63 62 60 59 58 58 59 61 65 67 67 66 64 60 57 55 54 55 54 52 50 49 49 50 50 50 49 48 47 47 46 46 46 46 44 43 42 40 38 38 39 42 44 43 42 40 39 37 36 35 33 31 29 28 26 25 25 24 23 23 22 21 21 20 20 20 20 20 19 19 19 19 18 18 18 17 17 17 17 17 18 18 18 18 18
64 63 61 59 57 56 55 56 59 63 66 67 67 67 65 62 59 58 57 55 52 50 50 50 50 50 50 48 47 46 46 46 47 47 45 43 41 40 38 38 39 41 44 45 44 42 40 39 38 37 35 33 31 29 27 26 25 24 24 23 22 22 21 21 20 20 20 20 19 19 19 19 19 18 18 17 17 17 17 17 18 18 18 18 19 19
62 61 59 56 54 52 52 54 58 62 65 66 68 68 67 64 61 58 56 53 51 50 51 51 51 50 49 47 46 46 46 47 47 46 43 41 39 37 37 38 41 43 45 44 43 42 41 40 38 37 35 33 30 28 26 25 24 24 23 23 22 22 21 21 20 20 20 20 20 19 19 19 18 18 18 17 17 17 18 18 18 18 18 19 19 19
61 59 57 54 52 50 50 53 57 62 65 67 68 68 67 64 61 57 54 51 50 50 51 51 51 50 48 47 46 45 46 46 45 43 41 38 37 36 36 40 42 44 44 44 43 42 41 40 39 37 35 32 29 27 25 25 24 24 23 22 22 21 21 21 20 20 20 20 19 19 19 18 18 18 18 18 18 18 18 18 18 18 18 18 19 19
59 57 55 53 51 50 51 54 59 63 66 68 69 68 66 63 59 55 52 50 49 49 49 49 49 47 46 45 45 45 44 43 42 40 38 36 35 36 38 41 43 44 43 43 42 41 41 40 38 36 33 30 27 26 25 25 24 23 23 22 22 21 21 21 20 20 20 20 19 19 19 18 18 18 18 18 18 18 19 19 19 19 19 19 19 19
55 55 54 53 52 52 53 56 59 63 65 67 67 66 64 61 57 52 49 47 45 45 45 44 44 43 42 42 43 42 41 40 38 37 36 36 37 38 41 43 43 43 42 42 42 41 40 39 37 34 31 28 26 25 25 25 24 23 23 22 21 21 21 21 20 20 20 20 19 19 19 18 18 18 19 19 19 19 19 19 19 19 19 19 19 19
51 52 53 53 54 55 56 57 59 61 62 62 62 61 59 56 52 48 45 43 42 41 40 40 39 39 39 40 40 39 38 36 36 35 35 37 39 41 42 43 42 42 42 42 41 41 39 37 35 32 29 27 25 25 25 25 24 23 22 22 21 21 21 21 20 20 20 19 19 19 19 19 19 19 19 19 20 20 20 20 19 19 19 19 19 19
50 51 52 54 55 56 57 58 59 59 58 57 56 55 53 49 45 43 41 40 40 39 38 38 38 38 38 38 37 36 35 35 35 36 37 39 41 42 42 42 41 41 41 41 40 39 37 35 33 29 27 26 25 25 25 24 24 23 22 22 21 21 21 21 20 20 20 19 19 19 20 20 20 20 20 20 20 20 20 20 20 20 20 20 20 20
50 52 53 54 55 56 57 57 56 55 54 52 50 48 46 43 41 40 40 40 40 39 38 38 38 38 37 36 35 34 35 36 38 39 40 42 42 42 41 41 40 40 40 39 39 37 35 32 30 27 26 25 25 25 25 24 23 23 22 21 21 21 21 21 20 20 20 20 20 20 20 20 20 20 20 20 20 20 20 20 20 20 20 20 20 20
52 52 52 52 52 52 52 52 51 49 48 46 44 43 42 41 41 42 42 42 41 40 39 38 38 37 36 35 34 35 37 39 41 42 43 43 43 42 41 40 39 39 38 37 36 34 32 29 27 26 26 26 25 25 24 24 23 22 22 21 21 21 21 21 20 20 20 20 20 20 20 20 20 20 20 21 21 20 20 20 21 21 21 21 21 21
52 51 50 49 48 47 46 46 45 44 43 42 41 42 42 43 43 43 43 43 42 40 39 38 37 36 35 35 36 38 40 42 43 43 43 43 42 41 40 39 39 38 37 35 33 31 29 27 25 25 26 26 25 24 23 23 22 22 21 21 21 21 21 21 21 21 21 21 21 21 21 21 21 21 21 21 21 21 21 21 21 21 21 21 21 21
50 49 49 47 46 45 44 43 42 42 41 41 42 43 44 45 45 45 44 43 42 40 39 37 37 36 37 39 40 42 43 44 44 44 43 42 41 40 39 38 37 36 35 33 31 29 27 26 26 26 26 25 24 23 23 22 22 21 21 21 21 21 21 21 21 21 21 21 21 21 21 21 21 21 21 21 21 21 21 22 22 22 22 22 22 22
49 49 50 49 48 47 46 45 44 43 42 43 44 46 47 47 46 45 44 43 41 40 39 38 37 38 40 42 44 45 46 45 45 44 43 41 40 39 38 37 36 34 32 31 29 27 26 26 26 26 26 25 24 23 23 22 22 21 21 21 21 21 21 22 21 21 21 21 20 20 21 21 21 21 21 21 22 22 22 22 22 22 22 22 22 22
53 53 53 52 51 50 49 48 46 44 43 44 46 48 49 49 48 46 44 43 42 40 39 38 39 41 43 45 46 46 46 45 44 42 41 40 39 37 36 35 34 32 30 28 27 26 25 26 26 26 25 24 24 23 22 22 21 21 21 21 21 21 22 22 21 21 21 20 21 21 21 21 21 21 22 22 22 23 23 23 23 23 23 23 23 22
58 57 56 55 53 52 50 48 46 44 44 46 48 50 51 50 48 45 43 42 41 40 39 39 41 44 46 47 47 46 45 44 42 41 40 39 37 36 35 33 32 30 28 26 25 25 25 25 25 25 24 24 23 23 22 22 22 21 21 21 21 21 22 21 21 21 20 20 21 21 21 21 22 22 22 23 23 23 24 24 23 23 23 23 23 23
60 59 58 56 55 53 51 49 46 45 45 47 50 51 52 50 47 44 42 42 41 40 40 41 43 46 48 48 47 46 44 43 41 40 39 38 36 35 33 31 29 28 26 25 25 25 25 25 25 24 24 23 23 22 22 22 22 22 22 21 21 21 21 21 21 21 21 21 21 21 22 22 22 23 23 23 24 24 24 24 24 24 24 24 24 24
61 60 59 58 56 54 51 48 47 46 46 48 51 53 53 50 46 44 43 43 42 42 42 44 46 48 48 48 47 45 44 42 40 39 38 37 35 33 31 29 27 26 25 25 25 25 25 25 25 24 24 23 23 22 22 22 22 22 22 21 21 21 20 21 21 21 21 21 22 22 22 22 23 23 24 24 24 25 25 25 25 25 25 25 24 24
62 62 61 59 57 53 51 48 47 47 47 50 52 53 52 49 46 45 45 46 46 45 46 47 48 49 48 48 46 45 43 41 40 39 37 36 34 32 29 28 26 26 26 26 26 26 25 25 24 24 24 23 23 22 22 22 22 22 22 21 21 21 21 21 21 22 22 22 22 23 23 23 23 24 24 24 25 25 25 25 25 25 25 25 25 25
60 61 60 58 55 52 49 48 47 47 49 51 53 53 51 48 47 47 49 49 49 48 48 49 48 48 48 47 45 44 42 41 39 38 36 34 32 30 28 27 26 26 27 27 27 26 26 25 25 24 23 23 23 22 22 22 22 22 21 21 21 20 21 21 22 22 22 23 23 23 24 24 24 24 24 25 25 26 26 26 26 26 26 26 26 26
56 57 56 55 52 49 47 47 47 48 50 52 53 52 50 49 49 51 52 52 50 49 49 48 47 47 46 45 44 42 41 40 38 36 34 32 30 29 28 27 27 28 28 27 27 26 26 25 25 24 23 23 22 22 22 22 22 21 21 21 20 20 21 21 22 23 23 23 23 24 24 25 25 25 25 26 26 26 26 26 27 26 26 26 26 26
51 52 52 51 49 46 45 45 46 49 51 53 53 52 50 51 52 53 54 53 51 49 48 47 47 46 45 44 43 42 40 39 37 34 32 30 29 28 28 28 28 28 28 27 27 26 25 25 24 24 23 23 22 22 22 22 21 21 20 20 20 21 21 22 22 23 23 24 24 24 25 25 25 25 26 26 26 26 27 27 27 27 27 27 27 27
47 47 48 47 45 43 43 44 46 49 52 54 54 53 53 53 54 54 53 52 50 49 47 47 46 46 45 43 42 41 40 38 35 33 31 29 29 28 28 29 28 28 27 27 26 25 25 24 24 23 23 23 22 22 21 21 21 21 20 20 21 21 22 22 23 24 24 24 24 25 25 26 26 26 26 26 27 27 27 27 27 27 27 27 27 27
46 45 45 44 43 42 42 44 47 51 54 55 56 56 55 55 55 54 52 50 49 47 47 46 45 45 44 43 41 40 38 36 34 32 30 29 29 29 29 29 28 27 26 26 25 25 24 24 23 23 23 22 22 21 21 21 21 21 21 21 21 22 22 23 23 24 24 25 25 25 26 26 26 27 27 27 27 27 27 27 27 27 27 27 27 27
45 45 44 43 43 43 44 46 49 52 54 56 57 56 56 55 54 52 50 48 47 46 46 45 44 43 42 41 39 38 36 34 32 31 30 30 29 29 29 28 27 26 26 25 25 24 24 23 23 22 22 22 22 21 21 21 21 21 21 22 22 22 23 23 24 24 24 25 25 25 26 26 26 27 27 26 26 26 26 26 27 27 27 27 27 27
Wind_Direction
230 228 227 228 230 232 232 232 232 233 233 233 233 233 232 231 231 231 231 231 231 231 232 233 234 234 236 238 243 247 250 250 250 251 255 259 263 266 270 274 278 282 285 287 289 290 292 293 294 293 291 287 284 284 287 292 295 296 294 291 289 286 282 277 273 272 274 278 282 287 292 297 300 302 303 303 302 300 297 294 291 290 290 291 292 293
230 227 226 227 228 230 230 230 231 232 233 233 234 234 233 233 232 232 232 232 233 233 234 235 235 236 237 240 243 247 249 249 249 250 253 257 261 264 268 271 275 279 282 284 286 287 289 291 292 291 287 283 281 283 288 294 297 296 294 292 291 289 285 279 274 271 272 276 280 284 288 293 298 301 303 303 302 301 299 296 292 290 289 290 291 292
231 228 226 226 226 228 229 229 229 231 232 234 234 234 234 233 233 233 233 234 234 235 236 237 237 237 238 241 244 247 249 249 248 249 252 256 259 263 266 269 273 276 279 281 283 285 287 289 290 288 284 280 279 283 290 294 294 293 291 291 291 290 287 281 275 271 271 274 279 282 286 290 294 299 301 302 301 300 298 296 294 291 290 289 290 291
231 229 227 225 225 226 227 228 229 230 232 233 234 234 234 233 233 233 234 235 235 236 238 238 239 239 240 242 245 247 248 248 247 248 251 254 257 261 264 267 271 274 276 278 280 282 285 287 287 285 280 278 280 286 290 290 289 288 289 290 290 290 287 281 275 270 269 272 277 282 285 288 291 295 298 299 298 297 296 295 293 291 290 289 289 290
231 229 227 225 225 226 226 227 228 230 232 233 233 233 233 233 233 232 233 233 235 236 238 240 240 240 241 243 245 246 247 246 246 247 249 252 255 259 262 265 268 271 274 276 278 280 283 285 284 281 278 278 284 288 288 285 284 284 287 289 290 289 286 281 274 269 267 270 275 280 284 286 289 292 295 296 295 293 292 291 290 290 289 289 288 289
229 228 227 225 225 226 226 227 229 230 232 232 233 233 233 233 232 231 231 231 233 236 239 240 241 241 242 243 244 245 245 245 245 245 247 250 253 256 260 263 267 270 272 274 276 279 281 281 280 278 278 283 287 288 285 281 281 283 287 289 289 288 285 280 274 268 266 268 272 277 281 285 288 291 293 294 293 291 288 287 286 287 287 287 287 287
229 227 225 224 225 226 226 227 228 229 230 232 232 233 233 233 233 232 231 232 233 236 239 241 242 243 243 243 243 243 243 243 243 244 246 249 252 255 258 262 266 269 271 273 275 278 280 280 279 279 282 286 287 285 282 279 280 283 286 288 289 288 285 280 274 269 266 267 270 274 278 282 286 289 292 294 294 292 289 286 284 283 284 285 285 286
229 227 224 224 225 226 227 227 227 227 228 230 232 233 233 233 233 233 233 234 235 237 239 241 242 242 242 242 241 241 241 241 241 242 246 249 252 255 258 262 266 269 271 273 275 278 280 281 282 283 284 284 284 282 279 278 280 282 285 287 288 287 285 280 274 269 266 266 268 271 275 279 284 288 291 293 294 293 291 288 286 284 283 283 283 283
229 227 224 223 224 226 227 226 225 225 226 229 232 233 234 233 233 234 234 235 236 237 239 240 241 241 241 240 240 241 241 240 239 241 246 249 252 255 259 263 267 269 271 273 275 278 280 281 282 282 281 280 280 279 278 278 279 281 283 286 288 287 284 279 274 268 266 265 266 269 273 277 281 286 289 292 293 292 290 289 287 286 285 284 283 282
230 227 224 222 223 225 226 225 224 224 226 229 232 233 234 234 233 234 234 234 235 236 238 238 239 239 239 240 241 242 242 240 239 241 245 249 253 256 260 264 267 269 270 272 274 276 278 280 280 280 278 278 277 277 277 277 277 278 281 284 287 287 284 279 273 269 265 264 265 268 271 275 279 283 287 290 290 290 288 287 287 286 286 286 285 284
229 226 223 222 223 224 225 224 223 224 227 230 232 233 233 233 233 233 234 234 235 236 237 237 237 237 238 240 242 244 244 242 241 242 245 248 252 257 261 265 267 268 269 271 273 275 277 279 281 280 278 276 275 275 275 274 275 276 279 282 284 285 283 279 273 268 265 264 264 266 269 273 277 281 285 287 288 287 286 285 285 285 285 286 285 285
230 227 223 222 223 224 224 222 222 224 228 230 231 232 233 233 233 232 233 235 236 236 236 237 237 237 239 241 244 246 246 245 244 244 246 249 254 258 262 265 267 267 268 270 272 275 278 281 283 282 280 277 274 272 272 271 272 274 276 279 282 283 282 278 273 268 265 263 264 265 267 271 275 279 283 285 285 284 283 283 283 283 284 285 285 285
232 228 225 224 224 225 223 221 221 224 227 229 231 231 232 233 233 232 232 234 235 236 237 237 237 238 240 242 245 247 247 247 246 247 248 252 256 260 264 266 266 266 266 269 272 275 279 283 285 284 281 277 273 269 268 268 269 272 274 277 279 280 279 276 272 268 265 263 263 264 265 268 273 278 282 283 283 282 281 281 281 282 283 283 284 285
232 229 227 227 228 227 224 221 220 223 227 230 232 233 234 234 233 233 232 233 234 235 236 237 237 239 241 243 245 247 247 247 248 249 251 254 258 261 264 265 264 264 266 270 273 277 281 284 285 283 280 275 270 266 265 265 267 269 272 275 277 277 277 275 271 268 265 263 262 262 264 267 272 277 280 281 281 280 280 280 280 281 281 282 283 284
235 231 230 230 231 230 226 222 221 223 227 230 233 234 234 234 233 232 232 232 233 235 236 237 238 240 241 243 244 246 246 247 248 250 252 255 259 262 264 263 263 264 267 271 275 278 280 283 283 281 278 271 266 262 261 262 264 267 271 273 275 275 274 273 270 268 266 263 262 261 263 266 271 276 278 279 278 278 278 279 279 280 281 281 282 283
239 235 234 235 236 234 230 225 221 222 225 229 231 232 233 232 230 229 229 230 231 233 235 236 238 239 241 242 244 245 245 246 248 250 253 256 259 261 263 262 262 263 268 272 276 278 279 281 281 279 275 269 263 260 259 260 263 266 269 272 273 273 272 270 269 267 264 262 261 261 264 267 272 275 276 276 276 276 276 277 278 279 280 281 282 283
243 240 239 240 240 237 233 226 222 221 224 226 228 229 229 228 227 226 226 228 230 233 234 236 238 240 241 242 243 244 246 246 248 250 253 256 259 261 262 262 262 263 267 271 274 276 277 278 278 277 274 268 263 259 259 260 263 266 269 270 271 270 269 268 266 264 262 261 261 263 265 269 272 273 273 273 273 273 274 275 276 277 279 280 281 282
246 245 244 244 243 240 234 227 222 221 223 225 226 227 227 227 226 224 224 227 231 233 236 238 240 241 242 243 244 245 246 247 248 250 253 256 259 261 262 262 262 263 266 269 271 273 274 275 275 275 273 269 264 261 260 261 263 266 268 268 268 267 266 264 263 261 260 261 262 265 267 269 271 271 271 270 270 271 272 273 274 275 277 279 280 282
249 248 248 247 246 243 236 228 223 222 223 224 225 225 226 226 226 226 226 229 232 236 239 241 242 243 244 244 245 246 246 247 248 250 253 256 259 261 263 263 263 262 264 266 269 271 271 271 272 272 272 269 265 262 261 262 264 266 266 266 265 263 262 260 258 257 258 261 263 265 267 269 269 268 268 268 268 268 269 271 272 274 276 278 280 281
251 251 250 250 249 245 237 230 225 223 223 225 226 226 226 226 227 228 229 232 235 238 241 243 243 243 244 244 245 245 246 247 248 250 253 256 259 261 262 262 261 261 262 264 267 268 269 269 269 270 270 268 265 263 262 262 263 264 264 263 262 260 258 256 254 254 256 259 262 264 265 266 266 265 265 265 266 267 268 269 271 273 275 277 278 280
251 252 253 253 253 248 239 232 227 225 224 225 226 226 226 227 228 230 232 234 236 239 242 243 243 243 243 244 244 245 247 248 249 251 253 256 258 259 260 260 259 259 260 263 265 266 266 266 267 268 268 266 264 261 260 261 261 262 261 259 258 256 254 252 251 252 255 257 259 261 262 262 262 262 262 263 264 265 267 268 270 272 274 275 276 277
252 253 254 256 256 252 244 235 229 226 225 226 226 227 227 227 229 231 233 235 237 239 241 242 242 242 242 243 244 246 247 249 250 252 253 255 257 257 257 257 257 257 260 262 264 265 264 264 265 265 266 264 261 259 258 259 259 258 257 255 253 251 250 250 251 252 254 256 257 258 258 258 259 259 261 262 263 265 266 268 269 270 272 273 274 275
252 254 255 258 259 257 250 239 231 227 226 226 227 227 228 228 230 233 234 235 237 239 241 242 242 242 242 243 244 246 247 249 251 252 253 255 256 256 256 255 255 257 260 262 264 264 263 263 263 263 263 260 258 256 256 256 256 255 253 251 249 248 249 250 251 252 253 254 255 255 256 256 257 258 259 261 262 264 265 266 267 269 270 271 273 275
254 255 257 259 261 260 254 242 233 227 226 226 226 228 229 230 232 233 235 236 237 238 240 240 240 241 241 243 244 246 248 250 251 253 253 254 255 255 255 255 255 257 260 262 263 263 262 261 260 260 259 256 254 252 252 252 252 251 249 248 247 248 249 250 251 251 252 252 253 253 254 254 256 257 258 260 261 262 263 265 266 268 269 271 273 275
254 256 258 260 262 261 256 246 236 229 226 225 225 227 228 230 231 232 234 235 236 238 238 239 239 240 241 243 245 246 248 250 252 253 254 254 255 255 255 255 256 257 260 262 262 262 260 259 258 257 255 252 250 248 248 249 248 248 247 247 247 248 249 250 250 250 250 250 251 251 252 253 255 256 257 259 260 261 262 264 265 267 269 271 274 276
253 255 256 258 260 260 257 249 239 232 227 225 224 225 227 229 230 230 231 233 236 237 238 238 239 240 242 244 245 246 249 251 252 254 255 255 255 255 254 254 255 257 260 261 262 261 259 256 254 253 251 248 245 244 244 245 246 246 246 247 248 248 248 248 248 248 248 248 249 250 251 252 253 255 256 257 258 260 261 263 265 267 270 272 274 277
250 251 253 255 256 257 255 249 241 233 228 225 224 224 227 229 229 229 229 233 237 240 241 241 242 242 243 244 245 247 249 251 253 255 256 257 256 254 253 252 254 256 259 260 260 259 256 253 251 249 246 243 241 240 241 243 244 245 246 247 247 247 246 246 246 246 246 247 247 249 250 251 252 253 254 256 257 259 261 263 265 268 270 272 274 276
246 247 249 251 253 254 253 248 240 233 228 226 226 226 227 228 230 231 233 237 241 244 245 245 244 244 244 245 246 247 249 252 254 256 257 256 254 252 250 250 252 255 257 258 258 256 253 250 247 245 242 239 237 237 239 242 244 245 245 245 245 244 244 244 244 244 245 245 247 248 248 249 251 252 253 255 257 259 261 263 265 268 270 272 274 275
242 243 245 248 251 253 252 246 238 231 229 228 228 228 228 229 231 234 237 241 245 247 248 247 246 245 245 245 247 248 250 252 255 256 256 254 250 248 247 249 252 254 256 256 255 252 249 247 244 242 238 236 234 235 238 242 243 244 244 243 242 242 241 242 242 243 244 245 246 246 247 248 249 250 252 254 256 259 261 263 265 268 270 272 274 275
238 241 243 246 249 250 248 242 235 230 229 229 230 229 230 230 232 236 240 244 247 248 249 248 247 246 245 246 247 249 251 253 255 255 253 249 246 245 246 249 251 253 254 253 251 248 246 244 242 239 235 233 233 235 238 241 242 242 241 240 239 239 239 240 241 242 243 244 245 245 246 247 248 250 252 254 256 258 260 263 265 267 269 271 273 275
237 239 241 243 244 243 241 236 232 229 229 230 230 231 231 232 234 238 242 246 248 249 249 248 247 246 246 246 247 249 251 253 253 251 247 244 243 244 247 249 251 252 252 250 248 245 243 241 239 236 233 231 232 234 238 240 240 239 237 237 237 237 238 239 240 241 242 243 244 244 245 246 248 250 251 253 255 257 260 262 264 266 268 270 271 273
237 239 240 240 239 237 235 232 230 229 230 231 232 232 233 233 236 239 243 246 247 248 247 247 246 246 246 247 249 250 251 251 249 246 243 242 243 245 247 249 249 250 249 248 245 243 241 239 236 233 230 229 231 234 237 238 237 235 234 234 235 236 237 238 239 239 240 241 242 243 244 246 247 249 251 253 255 257 259 261 263 265 266 268 269 270
238 238 238 237 236 234 232 231 230 231 232 234 235 235 234 235 237 240 243 244 245 245 245 245 245 246 247 248 249 250 248 246 243 241 240 242 244 245 246 247 247 247 246 245 243 241 239 236 232 230 228 228 230 233 235 234 233 232 232 232 233 234 235 236 237 238 238 240 241 242 243 245 247 248 250 253 255 257 259 261 263 264 265 266 267 268
236 234 233 232 231 230 230 230 231 232 234 235 235 235 235 235 236 238 239 240 242 243 244 244 245 246 248 248 248 245 242 239 238 239 240 242 244 244 245 245 245 245 244 242 241 239 236 232 228 226 226 227 229 231 231 231 230 229 229 230 231 232 233 235 235 236 237 238 239 241 242 244 246 248 251 253 255 257 259 261 263 264 265 266 266 267
230 229 227 226 225 225 227 228 230 231 232 232 232 232 232 232 232 233 234 237 240 242 244 246 247 247 248 247 244 240 237 236 237 239 241 241 242 242 243 243 244 243 241 240 238 235 231 227 224 223 225 227 228 229 228 227 227 227 227 228 229 230 232 233 234 235 236 237 238 240 242 244 246 249 251 254 256 258 260 261 263 264 265 266 266 267
224 222 221 220 220 221 223 225 227 228 228 228 229 228 227 225 224 226 230 235 240 243 245 246 247 247 246 244 241 239 238 239 240 240 240 239 239 240 241 241 241 240 238 236 234 230 225 222 221 221 224 227 227 227 226 225 225 225 226 227 229 230 231 232 233 234 235 237 238 241 243 245 247 250 252 255 257 259 260 261 263 264 265 265 266 267
220 219 218 218 218 220 221 223 224 225 226 227 227 225 222 220 220 223 230 236 241 244 245 246 246 246 244 242 240 238 238 239 239 238 238 237 238 239 239 239 238 236 233 230 227 223 220 218 219 221 224 225 225 225 224 225 225 225 226 227 228 230 231 232 233 235 236 238 240 242 245 247 250 252 254 256 258 259 261 262 263 264 265 265 266 267
219 219 219 219 219 220 222 223 226 228 230 230 227 223 220 219 221 227 233 239 243 244 244 244 245 245 244 242 239 237 236 236 235 235 235 236 237 237 237 235 234 231 228 224 220 217 215 216 218 221 223 224 224 224 224 224 225 225 226 227 229 230 231 233 234 236 237 239 242 244 247 249 251 253 255 257 259 260 261 262 263 264 265 265 266 267
220 221 221 221 222 224 226 230 234 236 236 232 227 222 220 222 226 232 238 241 243 243 243 244 245 246 245 242 239 236 234 233 233 233 234 235 235 235 233 230 228 224 221 217 215 213 214 215 218 221 222 222 222 222 223 224 225 225 226 227 229 231 232 234 236 237 239 242 244 246 249 251 253 255 257 258 260 261 262 263 264 265 265 266 267 268
221 223 224 226 228 231 235 240 243 243 239 232 226 222 223 226 231 236 239 241 241 241 242 244 245 246 244 241 237 234 232 231 232 232 233 233 232 230 228 224 221 217 214 212 211 212 213 215 218 219 220 220 221 221 222 223 224 225 226 228 230 232 234 236 237 239 241 244 246 248 250 252 254 256 258 259 260 262 263 263 265 265 266 267 268 269
221 225 228 230 234 238 243 246 247 244 237 229 224 223 226 230 234 237 239 239 239 240 242 244 245 244 242 238 234 231 230 229 230 230 230 229 227 224 221 218 214 211 210 209 210 212 214 216 218 219 219 219 220 220 222 223 225 226 227 229 231 233 235 237 240 241 244 246 248 250 252 254 256 257 259 260 261 262 263 264 265 266 267 268 269 270
224 227 231 235 239 243 247 248 246 241 234 227 224 225 229 233 237 239 238 238 238 240 242 245 245 243 239 234 231 228 227 227 227 226 225 223 220 217 214 211 209 208 208 209 210 212 214 216 218 218 219 219 219 220 222 224 226 227 229 230 232 235 238 241 243 245 247 249 251 252 254 255 257 258 260 261 262 263 264 265 266 267 267 268 269 270
229 232 235 238 242 245 247 246 242 237 231 227 225 227 231 235 238 238 238 238 239 242 244 245 244 240 236 231 227 225 223 223 223 221 219 216 213 210 208 206 206 207 208 210 211 213 214 215 216 217 217 218 219 220 222 224 227 229 231 232 235 237 240 243 246 248 249 251 253 254 256 257 258 259 260 261 262 263 264 265 266 267 267 268 269 270
233 235 238 240 242 244 243 241 238 234 230 228 228 229 232 235 237 237 236 237 239 242 244 243 241 237 232 227 224 221 221 220 219 216 213 209 207 205 204 204 205 207 208 210 211 213 214 215 215 215 216 217 218 220 222 224 227 230 232 234 237 239 242 245 248 250 252 253 255 256 257 258 259 260 261 262 263 264 264 265 266 267 268 269 269 270
235 236 238 240 241 240 239 236 234 232 230 229 229 231 233 235 235 235 234 235 237 239 240 240 237 232 226 222 220 218 218 217 214 211 207 205 203 202 202 203 205 207 208 209 210 211 212 213 214 215 216 217 218 220 222 225 228 231 233 236 239 241 244 247 249 252 253 255 256 257 258 259 260 261 262 263 263 264 265 266 267 267 268 269 270 271
234 235 236 237 237 236 235 233 232 231 230 229 230 231 233 234 233 233 232 233 234 235 236 235 232 226 221 218 216 215 214 212 209 206 203 202 201 201 202 203 205 206 207 208 209 210 211 212 213 214 216 217 219 221 224 227 229 232 235 238 241 244 246 249 251 253 255 256 257 259 260 260 261 262 263 263 264 265 266 266 267 268 269 270 271 272
233 233 233 233 232 231 231 231 231 230 229 229 230 231 232 232 231 231 230 230 231 231 231 229 225 220 216 214 213 212 210 207 204 202 200 201 201 202 203 204 205 206 206 207 208 209 211 212 213 215 216 218 220 223 226 229 231 234 237 240 243 246 249 251 253 255 256 257 258 259 260 261 262 263 264 264 265 266 266 267 268 269 270 271 272 273
232 231 230 229 228 229 230 231 230 229 228 228 229 230 230 230 230 229 227 227 227 227 225 222 217 214 212 210 209 208 206 203 201 200 200 200 202 203 204 204 205 206 206 207 208 209 211 213 214 216 218 220 222 224 228 231 233 236 239 241 245 248 250 252 254 255 257 258 259 260 261 262 263 264 264 265 266 266 267 268 268 269 270 271 272 273
233 231 229 228 228 230 232 232 231 229 227 227 227 228 228 228 227 225 224 223 223 221 218 215 212 210 208 207 205 203 202 200 200 199 200 201 202 203 204 204 205 206 206 207 208 210 211 213 216 218 220 222 224 226 230 233 236 238 241 243 246 249 251 253 255 256 258 259 260 261 262 263 263 264 265 265 266 267 268 268 269 270 270 271 272 273
234 232 231 231 232 234 235 234 232 229 227 226 226 226 225 224 221 220 218 218 217 215 212 210 208 207 205 204 202 200 199 199 199 199 200 201 202 203 204 204 205 205 206 208 209 210 212 214 217 220 223 225 227 229 231 235 238 241 243 246 248 250 252 254 256 257 259 260 261 262 263 263 264 265 265 266 266 267 268 268 269 270 271 271 272 273
233 233 233 234 235 236 235 234 231 229 226 225 224 223 221 219 216 214 213 212 210 208 206 205 204 203 202 201 199 198 198 198 199 199 200 201 202 203 203 204 205 206 207 208 210 212 214 216 218 221 225 228 231 233 234 237 241 244 246 248 250 252 254 255 257 258 260 261 262 263 264 264 265 266 266 266 267 267 267 268 269 270 270 271 272 272
Height
3049 3051 3054 3056 3057 3058 3059 3061 3063 3064 3066 3067 3068 3068 3068 3068 3068 3069 3069 3069 3070 3071 3072 3074 3076 3078 3079 3080 3082 3084 3085 3086 3088 3088 3089 3089 3090 3090 3090 3091 3091 3091 3091 3092 3091 3091 3091 3090 3090 3090 3089 3089 3088 3088 3087 3087 3086 3086 3086 3086 3086 3086 3086 3086 3086 3085 3085 3085 3085 3085 3085 3084 3083 3082 3081 3081 3081 3081 3081 3081 3080 3080 3079 3078 3078 3078
3045 3047 3049 3051 3053 3054 3055 3057 3059 3061 3062 3063 3064 3064 3064 3065 3065 3065 3065 3066 3066 3068 3069 3071 3073 3075 3076 3077 3079 3081 3083 3084 3085 3086 3086 3087 3087 3087 3088 3088 3088 3089 3089 3089 3089 3089 3088 3088 3087 3087 3087 3086 3086 3086 3085 3085 3084 3084 3084 3084 3084 3083 3083 3083 3083 3083 3083 3082 3082 3082 3082 3082 3082 3081 3080 3079 3079 3079 3079 3079 3079 3078 3078 3077 3076 3076
3041 3043 3045 3047 3049 3050 3051 3053 3055 3057 3058 3060 3060 3061 3061 3061 3061 3061 3062 3063 3064 3065 3066 3068 3070 3072 3073 3075 3077 3079 3080 3081 3082 3083 3084 3084 3085 3085 3085 3086 3086 3086 3086 3087 3087 3086 3086 3086 3085 3085 3085 3084 3084 3083 3083 3082 3082 3082 3082 3081 3081 3081 3081 3081 3081 3081 3081 3080 3080 3080 3080 3080 3080 3080 3079 3078 3077 3077 3076 3077 3077 3076 3076 3076 3075 3075
3037 3039 3041 3043 3045 3046 3048 3049 3051 3053 3054 3056 3056 3057 3057 3057 3058 3058 3059 3060 3061 3062 3063 3065 3067 3069 3071 3073 3074 3076 3077 3078 3079 3080 3081 3081 3082 3082 3082 3083 3083 3084 3084 3084 3084 3084 3083 3083 3083 3083 3082 3082 3081 3081 3081 3081 3081 3080 3080 3079 3079 3079 3079 3079 3079 3079 3079 3078 3078 3077 3077 3077 3077 3078 3078 3077 3076 3076 3075 3075 3075 3075 3075 3074 3074 3074
3033 3035 3037 3039 3041 3042 3044 3046 3047 3049 3050 3051 3052 3052 3053 3053 3054 3055 3056 3056 3057 3059 3060 3062 3064 3066 3068 3070 3071 3073 3074 3076 3076 3077 3078 3079 3079 3080 3080 3080 3081 3081 3081 3082 3081 3081 3081 3081 3080 3080 3080 3080 3079 3079 3079 3079 3078 3078 3077 3077 3076 3076 3076 3077 3077 3076 3076 3076 3076 3076 3075 3074 3074 3075 3076 3076 3076 3075 3074 3074 3073 3073 3073 3072 3072 3072
3028 3031 3033 3036 3037 3038 3040 3042 3044 3045 3046 3047 3048 3048 3049 3050 3051 3051 3052 3053 3054 3055 3057 3059 3061 3063 3065 3067 3068 3070 3071 3072 3074 3075 3075 3076 3076 3077 3077 3078 3078 3078 3079 3079 3079 3078 3078 3078 3078 3078 3077 3077 3077 3077 3077 3076 3076 3076 3075 3075 3074 3074 3074 3074 3074 3074 3074 3074 3074 3074 3073 3072 3072 3072 3073 3074 3074 3074 3074 3073 3072 3071 3071 3071 3071 3071
3023 3026 3030 3031 3033 3034 3036 3038 3040 3041 3042 3042 3043 3044 3046 3046 3048 3048 3049 3049 3051 3052 3054 3056 3058 3061 3062 3064 3065 3067 3068 3070 3071 3072 3072 3073 3073 3074 3075 3075 3075 3076 3076 3076 3076 3076 3075 3075 3075 3075 3075 3075 3075 3075 3075 3074 3074 3073 3073 3072 3072 3072 3072 3072 3072 3072 3072 3072 3072 3072 3071 3071 3070 3070 3070 3071 3071 3071 3071 3071 3071 3071 3070 3070 3070 3070
3018 3022 3025 3027 3029 3031 3033 3034 3035 3036 3037 3037 3038 3040 3041 3043 3044 3045 3046 3046 3047 3049 3051 3053 3055 3057 3059 3061 3062 3064 3065 3067 3068 3069 3070 3071 3071 3071 3072 3072 3072 3073 3073 3073 3073 3073 3073 3073 3072 3072 3072 3072 3072 3072 3072 3072 3072 3071 3071 3071 3070 3070 3070 3070 3070 3070 3070 3070 3070 3070 3069 3069 3069 3068 3068 3068 3069 3069 3069 3069 3069 3069 3069 3068 3068 3068
3014 3017 3021 3023 3025 3027 3028 3028 3029 3030 3031 3033 3035 3036 3037 3038 3040 3041 3042 3044 3045 3046 3048 3050 3052 3054 3056 3057 3059 3061 3062 3064 3065 3066 3067 3068 3068 3068 3069 3069 3070 3070 3071 3071 3071 3071 3071 3070 3070 3070 3070 3070 3070 3070 3070 3070 3070 3069 3069 3068 3068 3068 3068 3068 3068 3067 3067 3067 3067 3067 3067 3067 3067 3067 3066 3066 3067 3067 3067 3067 3066 3066 3066 3066 3066 3066
3009 3013 3016 3018 3020 3021 3022 3022 3024 3026 3028 3030 3031 3032 3033 3034 3036 3037 3039 3041 3042 3043 3045 3046 3048 3050 3052 3054 3056 3058 3059 3061 3062 3064 3065 3065 3066 3066 3066 3066 3067 3068 3068 3068 3068 3068 3068 3067 3067 3067 3067 3067 3067 3067 3067 3067 3067 3067 3066 3066 3066 3066 3066 3066 3066 3066 3065 3065 3065 3065 3065 3065 3065 3065 3065 3065 3065 3065 3065 3065 3065 3064 3064 3064 3064 3064
3003 3007 3011 3013 3014 3014 3015 3017 3020 3022 3025 3026 3028 3029 3029 3030 3031 3033 3036 3037 3038 3040 3041 3043 3045 3047 3049 3051 3053 3055 3056 3058 3059 3061 3062 3062 3063 3063 3063 3064 3064 3065 3065 3065 3065 3065 3065 3065 3065 3065 3065 3065 3065 3065 3065 3065 3065 3065 3064 3064 3064 3064 3063 3063 3063 3063 3063 3063 3063 3063 3063 3063 3063 3063 3063 3063 3063 3063 3063 3063 3063 3062 3062 3062 3062 3062
2997 3001 3004 3006 3006 3008 3010 3013 3016 3019 3021 3022 3023 3024 3025 3025 3027 3030 3032 3033 3035 3036 3038 3039 3041 3043 3046 3048 3050 3052 3053 3055 3056 3057 3059 3059 3060 3060 3060 3061 3062 3062 3062 3062 3062 3062 3061 3061 3061 3061 3061 3061 3061 3062 3062 3062 3062 3062 3062 3061 3061 3061 3061 3061 3061 3061 3061 3061 3061 3061 3061 3061 3061 3061 3061 3061 3061 3061 3061 3061 3061 3061 3060 3060 3060 3060
2992 2995 2997 2998 3000 3003 3006 3010 3013 3015 3016 3017 3018 3018 3019 3021 3024 3026 3028 3031 3032 3033 3034 3036 3038 3040 3043 3045 3047 3049 3050 3052 3053 3054 3056 3056 3056 3057 3057 3058 3059 3060 3060 3060 3060 3059 3059 3059 3058 3058 3058 3058 3058 3059 3059 3060 3059 3059 3059 3059 3059 3059 3059 3059 3059 3059 3058 3058 3058 3059 3059 3059 3059 3060 3060 3059 3059 3059 3059 3059 3059 3059 3059 3058 3058 3058
2987 2989 2992 2994 2996 2999 3002 3006 3008 3010 3011 3013 3014 3015 3016 3019 3021 3023 3025 3027 3028 3029 3031 3032 3034 3037 3040 3042 3044 3045 3047 3049 3050 3051 3052 3053 3053 3054 3055 3056 3056 3057 3057 3057 3057 3057 3056 3056 3056 3055 3055 3055 3056 3056 3056 3057 3057 3056 3056 3056 3056 3056 3056 3056 3056 3056 3056 3056 3056 3056 3057 3057 3057 3058 3058 3057 3057 3057 3057 3057 3057 3057 3057 3056 3056 3056
2982 2985 2987 2990 2992 2995 2998 3001 3004 3006 3008 3010 3012 3013 3015 3016 3018 3020 3021 3023 3024 3025 3027 3029 3031 3034 3036 3039 3041 3042 3044 3045 3046 3048 3049 3050 3050 3051 3052 3053 3053 3054 3054 3054 3054 3054 3053 3053 3052 3052 3052 3052 3053 3053 3054 3054 3054 3054 3054 3054 3054 3054 3054 3054 3054 3054 3053 3053 3054 3054 3054 3055 3056 3056 3056 3056 3055 3055 3055 3055 3055 3055 3055 3055 3055 3055
2978 2981 2983 2985 2987 2991 2994 2997 3000 3002 3005 3008 3010 3011 3012 3013 3015 3016 3018 3019 3020 3021 3023 3025 3028 3031 3033 3035 3037 3039 3040 3042 3043 3045 3046 3046 3047 3048 3049 3050 3051 3051 3051 3051 3051 3051 3050 3050 3050 3050 3050 3050 3050 3050 3051 3051 3051 3051 3051 3051 3051 3051 3051 3051 3051 3051 3051 3051 3051 3052 3052 3053 3053 3054 3054 3054 3054 3053 3053 3053 3053 3053 3053 3053 3053 3053
2976 2978 2979 2981 2983 2986 2990 2993 2995 2998 3001 3004 3006 3007 3009 3010 3012 3013 3015 3016 3016 3017 3019 3021 3025 3027 3030 3032 3034 3036 3037 3039 3040 3041 3042 3043 3044 3045 3046 3046 3047 3047 3048 3048 3048 3048 3048 3047 3047 3047 3047 3047 3047 3047 3048 3048 3048 3048 3048 3049 3049 3049 3049 3049 3049 3049 3049 3049 3049 3050 3050 3051 3051 3051 3052 3052 3052 3051 3051 3051 3051 3051 3051 3051 3051 3051
2973 2974 2975 2976 2978 2982 2986 2989 2991 2993 2996 2999 3002 3004 3006 3007 3009 3010 3011 3012 3012 3013 3015 3019 3021 3024 3026 3029 3030 3032 3035 3036 3037 3038 3039 3040 3041 3041 3042 3043 3044 3044 3045 3046 3046 3045 3045 3045 3045 3045 3045 3045 3045 3045 3045 3045 3046 3046 3046 3046 3046 3047 3047 3047 3047 3047 3047 3047 3047 3048 3048 3049 3049 3050 3050 3050 3050 3050 3050 3050 3050 3050 3049 3049 3049 3049
2968 2969 2971 2971 2974 2978 2982 2984 2986 2988 2991 2994 2996 2999 3001 3003 3005 3006 3008 3009 3010 3010 3013 3016 3019 3021 3024 3026 3028 3030 3032 3033 3034 3035 3036 3036 3037 3038 3039 3040 3041 3041 3042 3042 3043 3042 3042 3042 3042 3042 3042 3042 3042 3042 3042 3043 3043 3043 3043 3044 3044 3044 3045 3045 3045 3045 3045 3045 3045 3046 3046 3046 3047 3047 3048 3048 3048 3048 3048 3048 3048 3048 3048 3048 3048 3048
2963 2965 2966 2967 2970 2973 2976 2978 2980 2983 2986 2989 2991 2994 2997 2999 3001 3003 3004 3006 3006 3008 3011 3014 3016 3019 3021 3023 3025 3027 3029 3030 3030 3031 3032 3033 3034 3035 3036 3036 3037 3038 3039 3039 3040 3040 3040 3039 3039 3040 3040 3040 3040 3040 3040 3040 3041 3041 3041 3041 3042 3042 3043 3043 3043 3043 3043 3043 3043 3044 3044 3045 3045 3046 3046 3046 3046 3046 3046 3046 3046 3046 3046 3046 3046 3046
2959 2959 2961 2962 2965 2967 2969 2972 2976 2979 2982 2985 2988 2991 2993 2995 2997 3000 3001 3002 3004 3006 3008 3011 3014 3016 3018 3021 3022 3024 3025 3026 3026 3027 3029 3030 3031 3032 3032 3033 3034 3035 3036 3036 3036 3036 3037 3036 3037 3037 3037 3037 3037 3037 3037 3038 3038 3039 3039 3039 3040 3040 3041 3041 3041 3041 3041 3041 3042 3042 3042 3043 3043 3044 3044 3044 3044 3044 3044 3045 3045 3045 3045 3045 3045 3045
2954 2955 2957 2959 2960 2961 2963 2967 2972 2976 2978 2981 2984 2986 2989 2991 2994 2996 2997 2999 3001 3003 3006 3008 3011 3013 3015 3017 3019 3020 3021 3022 3023 3024 3026 3027 3028 3029 3029 3030 3031 3031 3032 3033 3033 3033 3034 3034 3034 3034 3034 3034 3034 3035 3035 3035 3036 3036 3037 3037 3038 3038 3039 3039 3040 3040 3040 3040 3040 3040 3041 3041 3041 3042 3042 3042 3042 3042 3043 3043 3043 3043 3043 3043 3043 3043
2949 2951 2953 2955 2956 2957 2959 2964 2969 2972 2976 2978 2981 2983 2986 2989 2991 2993 2995 2997 2998 3001 3003 3005 3007 3010 3012 3013 3015 3016 3017 3019 3020 3021 3022 3024 3024 3025 3026 3026 3027 3028 3029 3030 3030 3031 3031 3031 3031 3031 3032 3032 3032 3032 3032 3033 3034 3034 3035 3035 3036 3036 3037 3037 3037 3038 3038 3038 3038 3038 3039 3039 3040 3040 3040 3040 3041 3041 3041 3041 3041 3041 3041 3041 3041 3041
2946 2948 2950 2951 2952 2954 2957 2961 2966 2969 2973 2976 2979 2982 2985 2987 2989 2991 2992 2994 2995 2997 2999 3001 3004 3006 3007 3009 3011 3012 3013 3015 3016 3018 3019 3020 3021 3021 3022 3023 3024 3025 3026 3026 3027 3027 3028 3028 3028 3029 3029 3029 3030 3030 3030 3031 3032 3032 3033 3033 3034 3035 3035 3035 3036 3036 3036 3036 3036 3036 3037 3037 3038 3038 3038 3038 3039 3039 3039 3039 3039 3039 3040 3040 3040 3040
2943 2945 2946 2948 2950 2951 2954 2959 2962 2966 2970 2973 2977 2981 2983 2986 2987 2989 2990 2990 2991 2993 2995 2997 2999 3001 3003 3005 3006 3008 3010 3011 3013 3014 3015 3016 3017 3018 3019 3020 3021 3022 3022 3023 3024 3024 3025 3025 3026 3026 3026 3026 3027 3027 3028 3029 3030 3031 3031 3031 3032 3033 3033 3033 3033 3034 3034 3034 3034 3035 3035 3035 3036 3036 3036 3036 3037 3037 3037 3037 3037 3037 3038 3038 3038 3038
2940 2941 2943 2945 2947 2950 2953 2957 2961 2964 2967 2970 2974 2977 2980 2982 2984 2986 2987 2986 2987 2989 2991 2993 2995 2997 2999 3001 3003 3004 3006 3008 3009 3010 3011 3012 3014 3015 3016 3017 3018 3018 3019 3020 3021 3021 3022 3022 3022 3023 3023 3023 3024 3025 3026 3027 3028 3028 3029 3030 3030 3031 3031 3031 3031 3031 3032 3032 3032 3033 3033 3033 3034 3034 3034 3035 3035 3035 3035 3036 3036 3036 3036 3036 3036 3036
2937 2939 2941 2943 2946 2948 2951 2955 2958 2961 2964 2967 2970 2973 2975 2978 2981 2982 2982 2982 2983 2985 2988 2990 2991 2993 2995 2997 2999 3001 3002 3004 3005 3006 3008 3009 3010 3011 3012 3013 3014 3015 3016 3016 3017 3018 3019 3019 3019 3020 3020 3021 3021 3022 3024 3025 3026 3026 3027 3028 3028 3029 3029 3029 3029 3030 3030 3030 3031 3031 3031 3031 3032 3032 3032 3033 3033 3033 3033 3034 3034 3034 3034 3035 3035 3035
2935 2937 2939 2941 2944 2946 2949 2952 2956 2958 2961 2963 2966 2968 2971 2974 2976 2977 2977 2978 2980 2983 2985 2986 2988 2990 2991 2993 2996 2997 2999 3001 3001 3002 3004 3005 3006 3007 3009 3010 3011 3012 3013 3013 3014 3015 3016 3016 3016 3017 3017 3018 3019 3020 3021 3023 3024 3024 3025 3026 3026 3026 3027 3027 3027 3028 3028 3028 3029 3029 3030 3030 3030 3031 3031 3031 3031 3031 3032 3032 3032 3032 3033 3033 3033 3033
2932 2935 2937 2940 2942 2944 2946 2949 2952 2955 2957 2960 2962 2964 2966 2969 2970 2971 2972 2975 2978 2980 2981 2983 2985 2986 2988 2990 2992 2994 2996 2996 2997 2998 3000 3001 3002 3004 3005 3006 3007 3008 3009 3010 3011 3011 3012 3013 3013 3014 3014 3015 3016 3018 3019 3020 3021 3022 3023 3023 3024 3024 3025 3025 3025 3026 3026 3026 3027 3027 3028 3028 3028 3029 3029 3029 3030 3030 3030 3030 3031 3031 3031 3031 3031 3031
2931 2933 2936 2938 2940 2942 2944 2946 2950 2952 2955 2956 2958 2960 2962 2964 2966 2968 2970 2973 2975 2977 2978 2980 2982 2983 2985 2987 2989 2991 2991 2992 2993 2995 2996 2997 2999 3000 3001 3002 3003 3004 3006 3006 3007 3007 3008 3009 3010 3011 3012 3013 3014 3016 3017 3018 3019 3020 3021 3021 3021 3022 3023 3023 3023 3024 3024 3025 3025 3026 3026 3026 3027 3027 3027 3028 3028 3028 3028 3029 3029 3029 3029 3029 3030 3030
2927 2930 2933 2935 2937 2939 2941 2944 2947 2950 2951 2953 2954 2956 2958 2961 2963 2966 2968 2970 2972 2974 2975 2977 2978 2980 2981 2983 2985 2986 2986 2988 2990 2991 2993 2994 2995 2996 2998 2999 3000 3001 3002 3003 3003 3004 3005 3006 3007 3008 3009 3011 3012 3013 3015 3016 3017 3018 3018 3019 3019 3020 3021 3021 3021 3022 3022 3023 3023 3024 3024 3025 3025 3025 3026 3026 3026 3027 3027 3027 3027 3027 3028 3028 3028 3028
2924 2927 2929 2932 2934 2936 2938 2941 2943 2946 2947 2948 2950 2952 2955 2958 2961 2963 2965 2967 2969 2971 2972 2973 2975 2976 2978 2979 2980 2981 2982 2985 2986 2988 2990 2991 2991 2993 2994 2996 2996 2997 2998 2999 3000 3000 3001 3003 3004 3006 3007 3008 3010 3011 3013 3014 3015 3015 3016 3016 3017 3018 3018 3019 3020 3020 3021 3021 3021 3022 3022 3023 3023 3024 3024 3025 3025 3025 3026 3026 3026 3026 3026 3026 3026 3026
2922 2924 2926 2929 2931 2932 2935 2937 2939 2941 2942 2944 2946 2949 2952 2955 2958 2961 2962 2964 2966 2967 2969 2970 2971 2973 2975 2976 2977 2978 2980 2982 2983 2984 2986 2987 2988 2990 2991 2992 2993 2994 2995 2996 2996 2997 2999 3000 3001 3003 3005 3006 3008 3010 3011 3011 3012 3013 3014 3014 3015 3016 3016 3017 3018 3018 3019 3019 3020 3020 3021 3021 3022 3022 3023 3023 3023 3024 3024 3024 3024 3024 3024 3025 3025 3025
2919 2921 2923 2925 2927 2929 2931 2933 2935 2936 2938 2940 2943 2946 2950 2953 2956 2958 2960 2961 2963 2964 2965 2966 2968 2970 2971 2973 2974 2975 2977 2979 2980 2981 2982 2983 2985 2986 2987 2989 2990 2991 2991 2992 2993 2994 2996 2997 2999 3000 3002 3004 3006 3007 3008 3009 3010 3011 3011 3012 3013 3014 3014 3015 3016 3016 3017 3017 3018 3019 3019 3020 3020 3021 3021 3021 3022 3022 3022 3022 3022 3023 3023 3023 3023 3023
2916 2917 2919 2921 2923 2925 2927 2929 2931 2933 2935 2938 2941 2944 2947 2950 2952 2954 2956 2958 2959 2961 2962 2964 2965 2966 2967 2969 2970 2972 2974 2976 2977 2978 2979 2981 2982 2983 2984 2985 2986 2987 2988 2989 2990 2992 2993 2995 2996 2998 2999 3001 3003 3005 3006 3007 3007 3008 3009 3010 3011 3011 3012 3013 3014 3014 3015 3016 3016 3017 3017 3018 3019 3019 3020 3020 3020 3020 3021 3021 3021 3021 3021 3021 3021 3021
2912 2913 2915 2917 2919 2921 2923 2926 2928 2930 2932 2935 2938 2941 2944 2946 2949 2951 2953 2954 2956 2957 2959 2961 2962 2963 2965 2966 2968 2970 2971 2973 2974 2975 2976 2977 2979 2980 2981 2981 2983 2984 2985 2986 2988 2989 2991 2993 2994 2996 2997 2999 3001 3002 3003 3004 3005 3006 3007 3008 3009 3010 3010 3011 3012 3012 3013 3014 3015 3015 3016 3016 3017 3017 3018 3018 3018 3019 3019 3019 3019 3019 3019 3019 3019 3019
2907 2909 2911 2914 2916 2918 2921 2923 2925 2928 2930 2933 2936 2939 2941 2944 2946 2948 2950 2951 2952 2954 2956 2957 2959 2960 2962 2963 2966 2967 2969 2971 2971 2972 2973 2974 2975 2976 2977 2978 2980 2981 2982 2983 2985 2987 2989 2990 2992 2993 2995 2997 2999 3000 3001 3002 3003 3004 3005 3006 3007 3007 3008 3009 3010 3011 3011 3012 3013 3013 3014 3015 3015 3016 3016 3016 3016 3017 3017 3017 3017 3017 3017 3017 3017 3017
2904 2906 2909 2911 2914 2916 2918 2921 2923 2926 2928 2931 2933 2936 2939 2941 2943 2944 2946 2947 2949 2951 2952 2954 2956 2958 2959 2961 2963 2964 2966 2966 2967 2968 2970 2971 2971 2973 2974 2975 2976 2978 2979 2981 2983 2985 2986 2988 2990 2991 2993 2995 2997 2998 2999 3000 3001 3002 3003 3004 3005 3006 3006 3007 3008 3009 3010 3010 3011 3011 3012 3012 3013 3013 3014 3014 3015 3015 3015 3015 3015 3015 3015 3016 3016 3016
2901 2903 2906 2909 2911 2914 2916 2918 2921 2923 2926 2928 2931 2933 2936 2938 2939 2941 2942 2944 2946 2948 2950 2951 2953 2955 2956 2958 2959 2961 2961 2962 2963 2965 2966 2967 2968 2970 2971 2972 2974 2975 2977 2979 2981 2982 2984 2986 2988 2989 2991 2993 2995 2996 2996 2997 2998 3000 3001 3002 3003 3004 3005 3005 3006 3007 3008 3008 3009 3010 3010 3011 3011 3011 3012 3012 3013 3013 3013 3013 3013 3013 3013 3014 3014 3014
2899 2901 2903 2906 2908 2911 2913 2915 2918 2920 2923 2926 2928 2931 2932 2934 2936 2938 2940 2941 2943 2945 2946 2948 2950 2951 2953 2954 2956 2956 2957 2959 2960 2961 2963 2964 2966 2967 2968 2970 2971 2973 2975 2977 2979 2981 2982 2984 2986 2988 2990 2991 2992 2993 2994 2995 2996 2997 2999 3000 3001 3002 3003 3003 3004 3005 3006 3006 3007 3008 3008 3009 3009 3010 3010 3010 3011 3011 3011 3011 3011 3011 3011 3012 3012 3012
2897 2899 2900 2902 2905 2907 2910 2912 2915 2917 2920 2922 2925 2927 2929 2930 2932 2934 2936 2938 2940 2941 2943 2944 2946 2948 2949 2951 2952 2953 2954 2956 2957 2958 2960 2961 2963 2964 2966 2968 2969 2971 2973 2975 2977 2979 2981 2982 2984 2986 2988 2989 2990 2991 2992 2993 2994 2996 2996 2998 2999 3000 3001 3001 3002 3003 3004 3005 3005 3006 3006 3007 3007 3008 3008 3008 3009 3009 3009 3009 3009 3009 3010 3010 3010 3010
2893 2895 2897 2899 2901 2904 2907 2909 2911 2914 2916 2919 2922 2924 2925 2926 2928 2930 2932 2934 2936 2938 2939 2941 2942 2944 2946 2947 2948 2950 2951 2953 2954 2956 2957 2959 2960 2962 2964 2966 2967 2969 2971 2973 2975 2977 2979 2981 2983 2984 2986 2987 2988 2989 2990 2991 2992 2993 2995 2996 2997 2997 2998 2999 3000 3001 3002 3002 3003 3004 3004 3005 3005 3006 3006 3006 3006 3007 3007 3007 3007 3007 3008 3008 3008 3008
2890 2892 2894 2897 2899 2902 2904 2906 2908 2911 2913 2916 2919 2920 2921 2923 2925 2927 2929 2931 2932 2934 2936 2937 2939 2940 2942 2943 2945 2946 2948 2950 2951 2953 2955 2956 2958 2960 2961 2963 2966 2968 2970 2971 2973 2976 2977 2979 2981 2982 2983 2984 2986 2986 2988 2989 2990 2991 2992 2994 2995 2995 2996 2997 2998 2999 3000 3001 3001 3002 3002 3003 3003 3004 3004 3004 3005 3005 3005 3005 3005 3006 3006 3006 3006 3006
2887 2889 2892 2894 2897 2899 2901 2903 2905 2907 2910 2913 2915 2916 2918 2920 2922 2923 2925 2927 2929 2931 2932 2934 2936 2937 2939 2940 2941 2943 2945 2947 2949 2950 2952 2954 2956 2957 2959 2961 2964 2966 2968 2970 2972 2974 2976 2977 2979 2980 2981 2982 2983 2985 2986 2987 2988 2989 2990 2991 2992 2993 2994 2995 2996 2997 2997 2998 2999 3000 3000 3001 3001 3002 3002 3002 3003 3003 3003 3003 3003 3003 3004 3004 3004 3004
2884 2887 2889 2891 2893 2895 2897 2899 2901 2904 2907 2909 2911 2912 2914 2916 2918 2920 2922 2924 2926 2927 2929 2930 2932 2933 2935 2937 2939 2940 2942 2944 2946 2948 2950 2951 2953 2955 2957 2960 2962 2964 2967 2969 2971 2972 2974 2975 2976 2978 2979 2980 2981 2982 2984 2985 2986 2987 2988 2989 2990 2991 2992 2993 2994 2995 2996 2996 2997 2998 2998 2999 2999 3000 3000 3001 3001 3001 3001 3001 3001 3001 3001 3001 3001 3001
2881 2883 2885 2887 2889 2891 2893 2896 2898 2901 2903 2906 2907 2909 2911 2913 2915 2916 2918 2920 2922 2924 2925 2927 2928 2930 2931 2933 2936 2938 2940 2941 2943 2946 2947 2950 2951 2954 2956 2958 2960 2963 2965 2967 2969 2971 2972 2973 2974 2976 2977 2978 2979 2981 2982 2983 2984 2985 2986 2987 2988 2989 2990 2991 2992 2993 2994 2994 2995 2996 2996 2996 2997 2998 2998 2998 2999 2999 2999 2999 2999 2999 2999 2999 2999 2999
2877 2879 2881 2883 2886 2888 2890 2892 2895 2897 2899 2901 2903 2905 2907 2909 2911 2913 2915 2917 2918 2920 2922 2924 2926 2927 2929 2931 2933 2935 2937 2939 2941 2943 2946 2948 2950 2952 2954 2956 2959 2961 2963 2965 2966 2968 2970 2971 2972 2974 2975 2976 2978 2979 2980 2981 2982 2983 2984 2985 2986 2987 2988 2989 2990 2991 2991 2992 2993 2994 2994 2995 2995 2996 2996 2996 2996 2997 2997 2997 2997 2997 2997 2997 2997 2997
2873 2876 2878 2880 2882 2884 2886 2889 2891 2893 2895 2897 2900 2902 2904 2906 2907 2909 2911 2913 2915 2916 2918 2920 2922 2924 2926 2929 2931 2933 2935 2937 2939 2941 2944 2946 2948 2951 2953 2955 2957 2959 2961 2963 2964 2966 2967 2969 2970 2972 2973 2975 2976 2977 2978 2979 2980 2981 2982 2983 2984 2985 2986 2987 2988 2989 2989 2990 2991 2991 2992 2993 2993 2994 2994 2994 2995 2995 2995 2995 2995 2995 2995 2995 2995 2995
2871 2873 2875 2877 2879 2881 2883 2885 2887 2889 2892 2894 2896 2898 2900 2902 2904 2906 2908 2909 2911 2913 2915 2917 2919 2921 2923 2926 2928 2930 2933 2935 2937 2940 2942 2944 2947 2949 2951 2954 2956 2958 2959 2961 2962 2964 2966 2967 2968 2970 2971 2972 2974 2975 2976 2977 2978 2979 2980 2981 2982 2983 2984 2985 2986 2986 2987 2988 2989 2989 2990 2991 2991 2991 2992 2992 2992 2992 2992 2992 2992 2992 2992 2992 2992 2992
2868 2870 2872 2874 2876 2878 2880 2882 2884 2886 2888 2890 2892 2894 2896 2899 2901 2903 2905 2906 2908 2911 2912 2915 2917 2919 2921 2923 2926 2928 2930 2933 2935 2938 2940 2943 2945 2947 2950 2952 2954 2956 2957 2959 2961 2962 2964 2965 2966 2968 2969 2971 2971 2973 2974 2975 2976 2977 2978 2979 2980 2981 2982 2983 2983 2984 2985 2986 2986 2987 2988 2988 2989 2989 2990 2990 2990 2990 2990 2990 2990 2990 2990 2990 2990 2990
2866 2867 2870 2871 2873 2876 2877 2879 2881 2883 2885 2887 2889 2891 2893 2895 2897 2900 2902 2904 2906 2908 2910 2912 2915 2917 2919 2921 2924 2926 2929 2931 2934 2936 2939 2941 2944 2946 2948 2950 2952 2954 2956 2957 2959 2961 2962 2963 2965 2966 2967 2968 2969 2971 2971 2972 2974 2975 2976 2977 2978 2979 2980 2981 2981 2982 2983 2983 2984 2985 2986 2986 2986 2987 2987 2988 2988 2988 2988 2988 2988 2988 2988 2987 2987 2987